Retour au catalogue

THORAD DELTA 1 DEB

ActifSSO
NORAD 8400·DEBRIS·🇺🇸 United States

Lancé Nov 15, 1974 depuis Vandenberg Space Force Base

Loading…

Prochains Passages (prochaines 24 heures)

TLE

FraisSource: Space-Track

Époque: Sep 14, 2026, 09:54 UTC

1 08400U 74089CC  26257.41262812  .00000016  00000-0  42275-3 0  9998
2 08400 101.7998 219.2739 0052045   3.3232 148.9422 12.44970236356182

Suivez THORAD DELTA 1 DEB en temps réel avec AllMySat

Download on the App Store